When you browse on this site, cookies collect data to enhance your experience and personalize the content and advertising you see.
Visit our Privacy Policy to learn more. By continuing to use the site, you agree to this use of cookies and data.
  • In Romania
  • List of Countries
  • For 7 days
  • Water Temperature
  • Satellite Maps
  • Weather Map
  • Weather Widgets
  • user-avatar
    Login

    Hourly Weather Kipungo

    Today, 22 March, Friday

    Time Temperature Precipitation Wind Pressure Humidity
    00:00 +22°C° 0.6 mm 1 mps 653 mmHg 74%
    01:00 +20°C° 0 mm 0 mps 653 mmHg 79%
    02:00 +20°C° 0.4 mm 0 mps 653 mmHg 81%
    03:00 +22°C° 0.4 mm 1 mps 653 mmHg 84%
    04:00 +21°C° 0.4 mm 1 mps 653 mmHg 86%
    05:00 +22°C° 0 mm 1 mps 653 mmHg 86%
    06:00 +22°C° 0 mm 1 mps 653 mmHg 85%
    07:00 +20°C° 0 mm 0 mps 654 mmHg 83%
    08:00 +25°C° 0 mm 1 mps 654 mmHg 70%
    09:00 +28°C° 0 mm 1 mps 655 mmHg 58%
    10:00 +31°C° 0 mm 1 mps 656 mmHg 45%
    11:00 +32°C° 0 mm 2 mps 655 mmHg 40%
    12:00 +35°C° 0 mm 2 mps 655 mmHg 35%
    13:00 +35°C° 0 mm 2 mps 655 mmHg 31%
    14:00 +35°C° 0 mm 3 mps 654 mmHg 33%
    15:00 +34°C° 0 mm 3 mps 654 mmHg 34%
    16:00 +34°C° 0 mm 3 mps 654 mmHg 35%
    17:00 +30°C° 0 mm 3 mps 653 mmHg 42%
    18:00 +28°C° 0 mm 2 mps 653 mmHg 49%
    19:00 +26°C° 0 mm 1 mps 653 mmHg 56%
    20:00 +25°C° 0 mm 1 mps 653 mmHg 58%
    21:00 +22°C° 0 mm 0 mps 653 mmHg 61%
    22:00 +21°C° 0 mm 0 mps 653 mmHg 63%
    23:00 +23°C° 0 mm 1 mps 653 mmHg 64%

    Tomorrow, 23 March, Saturday

    Time Temperature Precipitation Wind Pressure Humidity
    00:00 +23°C° 0 mm 1 mps 653 mmHg 66%
    01:00 +23°C° 0 mm 1 mps 653 mmHg 67%
    02:00 +22°C° 0.3 mm 1 mps 653 mmHg 74%
    03:00 +21°C° 0.3 mm 1 mps 653 mmHg 82%
    04:00 +20°C° 0.3 mm 1 mps 652 mmHg 89%
    05:00 +20°C° 0 mm 1 mps 653 mmHg 87%
    06:00 +21°C° 0 mm 1 mps 653 mmHg 86%
    07:00 +21°C° 0 mm 1 mps 653 mmHg 85%
    08:00 +25°C° 0 mm 1 mps 654 mmHg 70%
    09:00 +29°C° 0 mm 1 mps 656 mmHg 55%
    10:00 +31°C° 0 mm 0 mps 657 mmHg 41%
    11:00 +34°C° 0 mm 1 mps 656 mmHg 37%
    12:00 +35°C° 0 mm 2 mps 656 mmHg 33%
    13:00 +36°C° 0 mm 4 mps 655 mmHg 28%
    14:00 +35°C° 0 mm 3 mps 655 mmHg 32%
    15:00 +34°C° 0 mm 3 mps 654 mmHg 37%
    16:00 +32°C° 0 mm 2 mps 654 mmHg 41%
    17:00 +30°C° 0.2 mm 2 mps 653 mmHg 48%
    18:00 +27°C° 0.2 mm 3 mps 653 mmHg 54%
    19:00 +25°C° 0.2 mm 3 mps 653 mmHg 61%
    20:00 +24°C° 0.7 mm 2 mps 653 mmHg 68%
    21:00 +23°C° 0.7 mm 2 mps 654 mmHg 75%
    22:00 +21°C° 0.7 mm 2 mps 654 mmHg 83%
    23:00 +21°C° 0.1 mm 2 mps 654 mmHg 83%

    Day after tomorrow, 24 March, Sunday

    Time Temperature Precipitation Wind Pressure Humidity
    00:00 +20°C° 0.1 mm 2 mps 654 mmHg 83%
    01:00 +20°C° 0.1 mm 2 mps 653 mmHg 84%
    02:00 +20°C° 0.3 mm 2 mps 653 mmHg 86%
    03:00 +20°C° 0.3 mm 1 mps 653 mmHg 88%
    04:00 +20°C° 0.3 mm 1 mps 652 mmHg 90%
    05:00 +20°C° 0.3 mm 1 mps 653 mmHg 90%
    06:00 +20°C° 0.3 mm 1 mps 653 mmHg 89%
    07:00 +20°C° 0.3 mm 1 mps 653 mmHg 89%
    08:00 +23°C° 0 mm 1 mps 654 mmHg 77%
    09:00 +25°C° 0 mm 1 mps 655 mmHg 66%
    10:00 +28°C° 0 mm 2 mps 656 mmHg 55%
    11:00 +30°C° 0 mm 2 mps 656 mmHg 47%
    12:00 +32°C° 0 mm 2 mps 655 mmHg 39%
    13:00 +35°C° 0 mm 3 mps 655 mmHg 31%
    14:00 +34°C° 0 mm 2 mps 654 mmHg 35%
    15:00 +32°C° 0 mm 2 mps 654 mmHg 38%
    16:00 +31°C° 0 mm 1 mps 653 mmHg 42%
    17:00 +29°C° 0 mm 1 mps 653 mmHg 48%
    18:00 +27°C° 0 mm 1 mps 653 mmHg 54%
    19:00 +25°C° 0 mm 1 mps 653 mmHg 61%
    20:00 +24°C° 0 mm 2 mps 653 mmHg 63%
    21:00 +23°C° 0 mm 2 mps 653 mmHg 66%
    22:00 +23°C° 0 mm 2 mps 654 mmHg 69%
    23:00 +21°C° 0 mm 2 mps 653 mmHg 71%

    25 March, Monday

    Time Temperature Precipitation Wind Pressure Humidity
    00:00 +21°C° 0 mm 2 mps 653 mmHg 74%
    01:00 +21°C° 0 mm 1 mps 653 mmHg 77%
    02:00 +21°C° 0 mm 1 mps 652 mmHg 79%
    03:00 +21°C° 0 mm 1 mps 652 mmHg 82%
    04:00 +20°C° 0 mm 1 mps 651 mmHg 84%
    05:00 +21°C° 0 mm 1 mps 652 mmHg 82%
    06:00 +21°C° 0 mm 1 mps 652 mmHg 79%
    07:00 +19°C° 0 mm 0 mps 653 mmHg 77%
    08:00 +25°C° 0 mm 1 mps 654 mmHg 63%
    09:00 +29°C° 0 mm 1 mps 655 mmHg 49%
    10:00 +32°C° 0 mm 1 mps 656 mmHg 36%
    11:00 +33°C° 0 mm 1 mps 655 mmHg 32%
    12:00 +34°C° 0 mm 1 mps 655 mmHg 28%
    13:00 +37°C° 0 mm 2 mps 654 mmHg 25%
    14:00 +36°C° 0 mm 2 mps 654 mmHg 27%
    15:00 +35°C° 0 mm 2 mps 653 mmHg 30%
    16:00 +34°C° 0 mm 2 mps 653 mmHg 33%
    17:00 +31°C° 0 mm 1 mps 653 mmHg 39%
    18:00 +29°C° 0 mm 1 mps 653 mmHg 45%
    19:00 +26°C° 0 mm 1 mps 653 mmHg 51%
    20:00 +25°C° 0.1 mm 1 mps 653 mmHg 58%
    21:00 +24°C° 0.1 mm 2 mps 653 mmHg 65%
    22:00 +23°C° 0.1 mm 2 mps 653 mmHg 73%
    23:00 +21°C° 0.1 mm 2 mps 653 mmHg 77%

    26 March, Tuesday

    Time Temperature Precipitation Wind Pressure Humidity
    00:00 +21°C° 0.1 mm 2 mps 653 mmHg 80%
    01:00 +20°C° 0.1 mm 2 mps 652 mmHg 84%
    02:00 +20°C° 0 mm 2 mps 652 mmHg 86%
    03:00 +19°C° 0 mm 2 mps 652 mmHg 87%
    04:00 +19°C° 0 mm 2 mps 652 mmHg 89%
    05:00 +19°C° 0 mm 2 mps 652 mmHg 86%
    06:00 +21°C° 0 mm 1 mps 653 mmHg 82%
    07:00 +21°C° 0 mm 1 mps 653 mmHg 79%
    08:00 +25°C° 0 mm 1 mps 655 mmHg 67%
    09:00 +28°C° 0 mm 1 mps 656 mmHg 54%
    10:00 +32°C° 0 mm 1 mps 657 mmHg 41%
    11:00 +33°C° 0 mm 1 mps 656 mmHg 38%
    12:00 +34°C° 0 mm 1 mps 655 mmHg 34%
    13:00 +35°C° 0 mm 1 mps 655 mmHg 30%
    14:00 +34°C° 0 mm 1 mps 654 mmHg 33%
    15:00 +32°C° 0 mm 1 mps 653 mmHg 37%
    16:00 +31°C° 0 mm 1 mps 653 mmHg 40%
    17:00 +29°C° 0 mm 1 mps 653 mmHg 46%
    18:00 +27°C° 0 mm 1 mps 653 mmHg 52%
    19:00 +25°C° 0 mm 1 mps 653 mmHg 58%
    20:00 +24°C° 0.7 mm 2 mps 653 mmHg 66%
    21:00 +23°C° 0.7 mm 2 mps 653 mmHg 75%
    22:00 +20°C° 0.7 mm 2 mps 653 mmHg 84%
    23:00 +20°C° 1.1 mm 2 mps 653 mmHg 85%

    27 March, Wednesday

    Time Temperature Precipitation Wind Pressure Humidity
    00:00 +20°C° 1.1 mm 2 mps 653 mmHg 85%
    01:00 +20°C° 1.1 mm 2 mps 653 mmHg 86%
    02:00 +19°C° 0 mm 2 mps 653 mmHg 87%
    03:00 +20°C° 0 mm 1 mps 653 mmHg 89%
    04:00 +19°C° 0 mm 1 mps 652 mmHg 90%
    05:00 +20°C° 0 mm 1 mps 653 mmHg 89%
    06:00 +18°C° 0 mm 0 mps 654 mmHg 87%
    07:00 +18°C° 0 mm 0 mps 654 mmHg 86%
    08:00 +21°C° 0 mm 0 mps 655 mmHg 74%
    09:00 +26°C° 0 mm 1 mps 656 mmHg 62%
    10:00 +29°C° 0 mm 1 mps 657 mmHg 50%
    11:00 +31°C° 0 mm 1 mps 656 mmHg 45%
    12:00 +32°C° 0 mm 2 mps 656 mmHg 39%
    13:00 +35°C° 0 mm 2 mps 656 mmHg 33%
    14:00 +34°C° 0 mm 2 mps 655 mmHg 36%
    15:00 +32°C° 0 mm 2 mps 655 mmHg 39%
    16:00 +31°C° 0 mm 2 mps 654 mmHg 42%
    17:00 +29°C° 0 mm 1 mps 654 mmHg 47%
    18:00 +27°C° 0 mm 1 mps 654 mmHg 53%
    19:00 +25°C° 0 mm 1 mps 654 mmHg 58%
    20:00 +24°C° 0 mm 1 mps 654 mmHg 62%
    21:00 +24°C° 0 mm 1 mps 655 mmHg 66%
    22:00 +23°C° 0 mm 1 mps 655 mmHg 70%
    23:00 +22°C° 0 mm 1 mps 654 mmHg 73%
    Show more